Tracking 35237 objects as of 6-Sep-2026
HD Live streaming from Space Station
objects crossing your sky now

FLOCK 4G 15

Track FLOCK 4G 15 now!
10-day predictions
FLOCK 4G 15 is classified as:


NORAD ID: 62678
Int'l Code: 2025-009BX
Launch date: January 14, 2025
Source: United States (US)
Launch site: AIR FORCE WESTERN TEST RANGE (AFWTR)
Your satellite tracking list
Your tracking list is empty




NASA's NSSDC Master Catalog

Two Line Element Set (TLE):
1 62678U 25009BX  26248.67045692  .00006974  00000-0  23602-3 0  9998
2 62678  97.3970 330.2414 0005412  47.0990 313.0705 15.30905402148858
Source of the keplerian elements: AFSPC